Regional Weather Roundup
Issued by NWS Boston, MA

Home | Current Version | Previous Version | Text Only | Print | Product List | Glossary On
Versions: 1 2 3 4 5 6 7 8 9 10 11 12 13 14 15 16 17 18 19 20 21 22 23 24 25 26 27 28 29 30 31 32 33 34 35 36 37 38 39 40 41 42 43 44 45 46 47 48 49 50
000
ASUS41 KBOX 191810
RWRBOX

REGIONAL WEATHER ROUNDUP
NATIONAL WEATHER SERVICE TAUNTON MA
200 PM EDT SUN APR 19 2015

NOTE:  "FAIR" INDICATES FEW OR NO CLOUDS BELOW 12,000 FEET WITH NO
SIGNIFICANT WEATHER AND/OR OBSTRUCTIONS TO VISIBILITY.  THE FOLLOWING
OBSERVATION LOCATIONS DO NOT REPORT PRESENT WEATHER...PROVINCETOWN...
SMITHFIELD...BLOCK ISLAND...KEENE...AND OXFORD.

MAZALL-191900-
EASTERN MASSACHUSETTS

CITY           SKY/WX    TMP DP  RH WIND       PRES   REMARKS
BOSTON         MOSUNNY   48  37  65 E14       30.29S
6HR MIN TEMP:  47; 6HR MAX TEMP:  50;

BEVERLY        SUNNY     51  34  52 SE12      30.27R
LAWRENCE       PTSUNNY   56  33  42 S8        30.26S
BEDFORD        SUNNY     55  33  43 E12       30.24S
BLUE HILL        N/A     53  32  44 SE9       30.24F
NORWOOD        SUNNY     55  32  41 MISG      30.25F
MARSHFIELD     SUNNY     48  36  61 NE10      30.30F
PLYMOUTH       SUNNY     50  33  52 NE12G18   30.28F
TAUNTON        SUNNY     54  31  41 E7        30.26F
NEW BEDFORD    NOT AVBL
$$

MAZALL-191900-
CAPE COD AND THE ISLANDS

CITY           SKY/WX    TMP DP  RH WIND       PRES   REMARKS
FALMOUTH       SUNNY     50  32  50 NE14      30.27F
HYANNIS        SUNNY     50  36  58 NE14G22   30.25F
CHATHAM        SUNNY     48  35  60 NE15      30.28S
PROVINCETOWN   SUNNY    N/A N/A N/A NE10      30.29F
NANTUCKET      SUNNY     51  36  56 NE12      30.27S
MARTHAS VNYRD  MOSUNNY   53  33  46 E17       30.26F
$$

MAZALL-191900-
CENTRAL AND WESTERN MASSACHUSETTS

CITY           SKY/WX    TMP DP  RH WIND       PRES   REMARKS
WORCESTER      SUNNY     56  26  31 CALM      30.21F
6HR MIN TEMP:  43; 6HR MAX TEMP:  56;

FITCHBURG      SUNNY     60  27  28 S8        30.23F
ORANGE         SUNNY     58  24  27 VRB5      30.21F
SPRINGFIELD    SUNNY     60  29  31 W3        30.21F
WESTFIELD      SUNNY     61  22  22 SE7       30.21F
NORTH ADAMS    SUNNY     60  24  25 N6        30.20F
PITTSFIELD     FAIR      59  24  26 N6        30.18F
$$

RIZALL-191900-
RHODE ISLAND

CITY           SKY/WX    TMP DP  RH WIND       PRES   REMARKS
PROVIDENCE     MOSUNNY   56  32  40 VRB7      30.24F
6HR MIN TEMP:  48; 6HR MAX TEMP:  57;

NEWPORT        MOSUNNY   53  34  48 SE9       30.25F
BLOCK ISLAND   MOSUNNY   50  34  53 SE10      30.26F
SMITHFIELD     SUNNY     57  28  33 NE3       30.23S
WESTERLY       MOSUNNY   50  35  56 SE13G20   30.27S
$$

CTZALL-191900-
CONNECTICUT

CITY           SKY/WX    TMP DP  RH WIND       PRES   REMARKS
BRADLEY INTL   PTSUNNY   60  27  28 VRB6      30.22F
6HR MIN TEMP:  48; 6HR MAX TEMP:  60;

HARTFORD       SUNNY     59  30  33 SW8       30.23F
BRIDGEPORT     MOSUNNY   57  34  41 SE12      30.24F
DANBURY        PTSUNNY   59  31  34 S10G18    30.22F
GROTON         MOSUNNY   52  33  48 SE10      30.26S
NEW HAVEN      PTSUNNY   55  34  45 SE10      30.25F
CHESTER        FAIR      54  32  43 S9        30.25S
MERIDEN        MOSUNNY   60  31  33 S12       30.23F
WILLIMANTIC    SUNNY     61  28  28 CALM      30.22F
OXFORD         PTSUNNY   57  30  35 S12G18    30.22F
$$

MEZ002-015-021-024-NHZ003-005-008-011-012-014-VTZ005-008-191900-
NORTHERN NEW ENGLAND

CITY           SKY/WX    TMP DP  RH WIND       PRES   REMARKS
PORTLAND ME    MOSUNNY   55  33  43 E9        30.23F
6HR MIN TEMP:  47; 6HR MAX TEMP:  56;

BANGOR ME      MOSUNNY   51  25  36 W12G20    30.21F
CONCORD NH     SUNNY     59  22  24 MISG      30.22F
MANCHESTER NH  MOSUNNY   59  27  29 VRB3      30.21F
NASHUA NH      MOSUNNY   58  29  33 VRB6      30.23F
PORTSMOUTH NH  MOSUNNY   52  33  48 SE12      30.25R
JAFFREY NH     SUNNY     57  25  29 SE5       30.21F
KEENE NH       SUNNY     57  25  28 NE5       30.23F
BURLINGTON VT  MOSUNNY   50  27  40 CALM      30.28F
MT. WASHINGTON MOSUNNY   27  12  54 NE12        N/A  WCI  16
$$

NYZ052-076-191900-
EASTERN NEW YORK

CITY           SKY/WX    TMP DP  RH WIND       PRES   REMARKS
ALBANY         PTSUNNY   58  29  33 N5        30.23F
6HR MIN TEMP:  44; 6HR MAX TEMP:  59;

NEW YORK CITY  PTSUNNY   58  34  40 S14G21    30.24F
6HR MIN TEMP:  52; 6HR MAX TEMP:  59;

$$

ANZALL-191900-
MARINE OBSERVATIONS

STATION/POSITION TIME  TEMP    WIND        PRES    VSBY  WAVE
                       AIR SEA DIR/SP/G                  HT/PER
                 (UTC) (F)     (DEG/KT/KT) (MB)    (MI)  (FT/S)
BOSTON BUOY      1750   43 44  100/  8/ 10 1025.8F         2/ 4
BUZZARDS BAY     1700           60/ 17/ 17 1025.7F
NANTUCKET SOUND  1750   44 45   60/ 12/ 14 1025.1R         1/ 3
MASS BAY-STELLWA 1704   42 44   90/  8/ 10   N/A    1 7/8  2/ 4
ISLE OF SHOALS   1700   42     120/  9/ 10 1024.6R
S OF BLOCK IS    1708      44                N/A           3/ 7
$$

......................KEY.........................
  SKY/WX - SKY CONDITION/PRESENT WEATHER
  TMP    - TEMPERATURE IN FAHRENHEIT
  DWPT   - DEWPOINT IN FAHRENHEIT
  RH     - RELATIVE HUMIDITY IN PERCENT
  WIND   - DIRECTION AND SPEED IN MPH
  PRES   - MEAN SEA LEVEL PRESSURE IN INCHES OF HG
  WCI    - WIND CHILL INDEX
  VSB    - VISIBILITY IN MILES
  HX     - HEAT INDEX
  TC     - TEMPERATURE IN CELSIUS
  VRB    - VARIABLE WIND DIRECTION
  N/A    - NOT AVAILABLE


USA.gov is the U.S. government's official web portal to all federal, state and local government web resources and services.